Riverside, CA

6:18 PM PDT on September 24, 2016 (GMT -0700)
Riverside Municipal

Weather History for KRAL - September, 2013

Change the Weather History Date:

Monday, September 9, 2013

  Actual Average Record
Temperature  
Mean Temperature 82 °F 78 °F  
Max Temperature 91 °F 92 °F 111 °F (1979)
Min Temperature 72 °F 63 °F 43 °F (1917)
Degree Days  
Heating Degree Days 0 0  
Month to date heating degree days 0 0  
Since 1 July heating degree days 0 0  
Cooling Degree Days 17 13  
Month to date cooling degree days 196 119  
Year to date cooling degree days 1665 1377  
Growing Degree Days 32 (Base 50)    
Moisture  
Dew Point 51 °F    
Average Humidity 37    
Maximum Humidity 53    
Minimum Humidity 20    
Precipitation  
Precipitation 0.00 in 0.00 in 0.04 in (2015)
Month to date precipitation 0.00 0.03  
Year to date precipitation 2.37 9.37  
Since 1 July precipitation 0.16  
Snow  
Snow 0.00 in - - ()
Month to date snowfall 0.0  
Year to date snowfall 0.0  
Snow Depth 0.00 in    
Sea Level Pressure  
Sea Level Pressure 29.73 in    
Wind  
Wind Speed 5 mph (West)    
Max Wind Speed 15 mph    
Max Gust Speed 22 mph    
Visibility 10 miles    
Events      
T = Trace of Precipitation, MM = Missing Value Source: NWS Daily Summary

Daily Weather History Graph

Daily Weather History Graph

Search for Another Location

Airport or City:

Trip Planner

Search our weather history database for the weather conditions in past years. The results will help you decide how hot, cold, wet, or windy it might be!

Date:

Astronomy

Sep. 09, 2013 Rise Set
Actual Time 6:29 AM PDT 7:04 PM PDT
Civil Twilight 6:03 AM PDT 7:29 PM PDT
Nautical Twilight 5:34 AM PDT 7:58 PM PDT
Astronomical Twilight 5:04 AM PDT 8:29 PM PDT
Moon 10:41 AM PDT (9/9) 9:39 PM PDT (9/9)
Length of Visible Light 13h 25m
Length of Day
12h 35m
Waxing Crescent, 20% of the Moon is Illuminated
Sep 9
Waxing Crescent
Sep 12
First Quarter
Sep 19
Full
Sep 26
Last Quarter
Oct 4
New

Hourly Weather History & Observations

Time (PDT) Temp. Dew Point Humidity Pressure Visibility Wind Dir Wind Speed Gust Speed Precip Events Conditions
12:53 AM 75.0 °F 54.0 °F 48% 29.75 in 10.0 mi Calm Calm - N/A   Clear
1:53 AM 73.9 °F 55.9 °F 53% 29.73 in 10.0 mi WNW 3.5 mph - N/A   Clear
2:53 AM 73.0 °F 55.9 °F 55% 29.72 in 10.0 mi West 4.6 mph - N/A   Partly Cloudy
3:53 AM 73.9 °F 55.0 °F 52% 29.74 in 10.0 mi Calm Calm - N/A   Clear
4:53 AM 73.9 °F 53.1 °F 48% 29.73 in 10.0 mi Calm Calm - N/A   Partly Cloudy
5:53 AM 72.0 °F 54.0 °F 53% 29.74 in 10.0 mi WSW 4.6 mph - N/A   Clear
6:53 AM 72.0 °F 54.0 °F 53% 29.75 in 10.0 mi Calm Calm - N/A   Clear
7:53 AM 75.0 °F 54.0 °F 48% 29.75 in 10.0 mi Calm Calm - N/A   Clear
8:53 AM 78.1 °F 51.1 °F 39% 29.76 in 10.0 mi Calm Calm - N/A   Clear
9:53 AM 79.0 °F 51.1 °F 38% 29.77 in 10.0 mi Variable 3.5 mph - N/A   Clear
10:53 AM 84.0 °F 46.0 °F 26% 29.76 in 10.0 mi Variable 4.6 mph - N/A   Mostly Cloudy
11:53 AM 84.9 °F 46.9 °F 27% 29.74 in 10.0 mi West 5.8 mph - N/A   Mostly Cloudy
12:53 PM 91.0 °F 45.0 °F 20% 29.72 in 10.0 mi West 9.2 mph - N/A   Mostly Cloudy
1:53 PM 89.1 °F 45.0 °F 22% 29.70 in 10.0 mi West 12.7 mph 17.3 mph N/A   Clear
2:53 PM 90.0 °F 51.1 °F 26% 29.68 in 10.0 mi West 11.5 mph 21.9 mph N/A   Scattered Clouds
3:53 PM 87.1 °F 48.9 °F 27% 29.68 in 10.0 mi WNW 9.2 mph 21.9 mph N/A   Scattered Clouds
4:53 PM 86.0 °F 44.1 °F 23% 29.69 in 10.0 mi West 9.2 mph 18.4 mph N/A   Scattered Clouds
5:53 PM 82.9 °F 45.0 °F 26% 29.71 in 10.0 mi Variable 5.8 mph - N/A   Scattered Clouds
6:53 PM 80.1 °F 41.0 °F 25% 29.72 in 10.0 mi WNW 5.8 mph - N/A   Scattered Clouds
7:53 PM 75.9 °F 48.9 °F 38% 29.73 in 10.0 mi West 6.9 mph - N/A   Scattered Clouds
8:53 PM 75.0 °F 52.0 °F 44% 29.75 in 10.0 mi West 3.5 mph - N/A   Clear
9:53 PM 73.9 °F 54.0 °F 50% 29.74 in 10.0 mi SSW 6.9 mph - N/A   Clear
10:53 PM 72.0 °F 55.0 °F 55% 29.75 in 10.0 mi NNE 3.5 mph - N/A   Clear
11:53 PM 73.0 °F 54.0 °F 51% 29.76 in 10.0 mi Calm Calm - N/A   Clear